Weather History for KCYS - August, 2013

Change the Weather History Date:

Friday, August 30, 2013

  Actual Average Record
Temperature  
Mean Temperature 75 °F 65 °F  
Max Temperature 91 °F 79 °F 94 °F (1990)
Min Temperature 58 °F 51 °F 37 °F (1910)
Degree Days  
Heating Degree Days 0 2  
Month to date heating degree days 8 36  
Since 1 June heating degree days 77 192  
Since 1 July heating degree days 15 58  
Cooling Degree Days 10 2  
Month to date cooling degree days 162 114  
Year to date cooling degree days 445 324  
Since 1 June cooling degree days 439 321  
Growing Degree Days 25 (Base 50)    
Moisture  
Dew Point 49 °F    
Average Humidity 43    
Maximum Humidity 64    
Minimum Humidity 21    
Precipitation  
Precipitation 0.03 in 0.05 in 1.29 in (1905)
Month to date precipitation 1.14 1.90  
Year to date precipitation 8.38 12.40  
Snow  
Snow 0.00 in 0.00 in - ()
Month to date snowfall 0.0 0.0  
Since 1 July snowfall 0.0 0.0  
Snow Depth 0.00 in    
Sea Level Pressure  
Sea Level Pressure 30.02 in    
Wind  
Wind Speed 7 mph (WSW)    
Max Wind Speed 25 mph    
Max Gust Speed 35 mph    
Visibility 10 miles    
Events Rain , Thunderstorm    
T = Trace of Precipitation, MM = Missing Value Source: NWS Daily Summary

Daily Weather History Graph

Daily Weather History Graph

Search for Another Location

Airport or City:

Trip Planner

Search our weather history database for the weather conditions in past years. The results will help you decide how hot, cold, wet, or windy it might be!

Date:

Astronomy

Aug. 30, 2013 Rise Set
Actual Time 6:24 AM MDT 7:34 PM MDT
Civil Twilight 5:55 AM MDT 8:03 PM MDT
Nautical Twilight 5:21 AM MDT 8:36 PM MDT
Astronomical Twilight 4:45 AM MDT 9:12 PM MDT
Moon 1:03 AM MDT (8/30) 3:53 PM MDT (8/30)
Length of Visible Light 14h 07m
Length of Day
13h 10m
Waning Crescent, 28% of the Moon is Illuminated
Aug 30
Waning Crescent
Sep 5
New
Sep 12
First Quarter
Sep 19
Full
Sep 26
Last Quarter

Hourly Weather History & Observations

Time (MDT) Temp. Dew Point Humidity Pressure Visibility Wind Dir Wind Speed Gust Speed Precip Events Conditions
12:53 AM 63.0 °F 48.9 °F 60% 30.01 in 10.0 mi WNW 8.1 mph - N/A   Clear
1:53 AM 62.1 °F 48.0 °F 60% 30.01 in 10.0 mi West 10.4 mph - N/A   Clear
2:53 AM 60.1 °F 48.9 °F 67% 30.01 in 10.0 mi West 5.8 mph - N/A   Clear
3:53 AM 60.1 °F 46.9 °F 62% 30.02 in 10.0 mi WNW 4.6 mph - N/A   Clear
4:53 AM 60.1 °F 46.9 °F 62% 30.02 in 10.0 mi WNW 9.2 mph - N/A   Clear
5:53 AM 60.1 °F 46.0 °F 60% 30.02 in 10.0 mi WNW 5.8 mph - N/A   Clear
6:53 AM 59.0 °F 46.9 °F 64% 30.04 in 10.0 mi WNW 5.8 mph - N/A   Clear
7:53 AM 66.0 °F 48.0 °F 52% 30.03 in 10.0 mi WSW 5.8 mph - N/A   Clear
8:53 AM 73.9 °F 48.9 °F 41% 30.01 in 10.0 mi WNW 4.6 mph - N/A   Clear
9:53 AM 79.0 °F 51.1 °F 38% 30.01 in 10.0 mi SSE 6.9 mph - N/A   Clear
10:53 AM 84.9 °F 48.9 °F 29% 29.99 in 10.0 mi Variable 5.8 mph - N/A   Clear
11:53 AM 88.0 °F 46.0 °F 23% 29.98 in 10.0 mi SSW 9.2 mph - N/A   Clear
12:53 PM 89.1 °F 45.0 °F 22% 29.96 in 10.0 mi SSE 9.2 mph 18.4 mph N/A   Clear
1:21 PM 87.8 °F 44.6 °F 22% 30.24 in 10.0 mi South 10.4 mph 16.1 mph N/A Thunderstorm Clear
1:53 PM 82.9 °F 46.0 °F 27% 29.98 in 10.0 mi NNW 8.1 mph - 0.00 in Rain Light Rain
2:10 PM 78.8 °F 46.4 °F 32% 30.24 in 9.0 mi East 8.1 mph 19.6 mph 0.03 in Rain , Thunderstorm Light Rain
2:31 PM 80.6 °F 51.8 °F 37% 30.22 in 10.0 mi South 3.5 mph - 0.03 in   Scattered Clouds
2:53 PM 82.9 °F 48.9 °F 31% 29.96 in 10.0 mi SSW 4.6 mph - 0.03 in Thunderstorm Mostly Cloudy
3:44 PM 69.8 °F 53.6 °F 56% 30.29 in 10.0 mi NNW 12.7 mph 34.5 mph 0.00 in   Overcast
3:53 PM 69.1 °F 53.1 °F 57% 30.06 in 10.0 mi NNW 12.7 mph - 0.00 in Rain Light Rain
4:53 PM 72.0 °F 52.0 °F 49% 29.99 in 10.0 mi SW 9.2 mph - 0.00 in   Mostly Cloudy
5:53 PM 75.0 °F 52.0 °F 44% 29.96 in 10.0 mi NE 4.6 mph - N/A   Clear
6:53 PM 78.1 °F 45.0 °F 31% 29.95 in 10.0 mi Calm Calm - N/A   Clear
7:53 PM 71.1 °F 51.1 °F 49% 29.95 in 10.0 mi ESE 3.5 mph - N/A   Clear
8:53 PM 68.0 °F 52.0 °F 56% 29.97 in 10.0 mi South 4.6 mph - N/A   Clear
9:53 PM 66.9 °F 48.9 °F 52% 29.93 in 10.0 mi SSW 9.2 mph - N/A   Clear
10:53 PM 68.0 °F 48.9 °F 50% 29.90 in 10.0 mi SW 10.4 mph - N/A   Clear
11:53 PM 64.9 °F 51.1 °F 61% 29.89 in 10.0 mi West 5.8 mph - N/A   Clear